User: anonymous   Login
Location: Unspecified
(0.0000°N, 0.0000°E)
Time: 13:01:56
(UTC+00:00)
Language:

Vela 6A - Orbit

View from above orbital plane
View from above orbital plane
View from above satellite
View from above satellite

Ground track
Ground track

The orbit data is extracted from the following two-line orbital elements,

1 04366U 70027A   16130.83339008  .00000584  00000-0  00000+0 0  9996
2 04366  47.6546 218.7865 6299960  76.9745   1.1773  0.21475591 29799
Epoch (UTC): 09 May 2016 20:00:04
Eccentricity: 0.6299960
inclination: 47.6546°
perigee height: 37204 km
apogee height: 185615 km
right ascension of ascending node: 218.7865°
argument of perigee: 76.9745°
revolutions per day: 0.21475591
mean anomaly at epoch: 1.1773°
orbit number at epoch: 2979

The dashed part of the orbit path shows where the satellite is in the earth's shadow,  

DLR